Regional Weather Roundup
Issued by NWS

Home | Current Version | Previous Version | Graphics & Text | Print | Product List | Glossary On
Versions: 1 2 3 4 5 6 7 8 9 10 11 12 13 14 15 16 17 18 19 20 21 22 23 24 25 26 27 28 29 30 31 32 33 34 35 36 37 38 39 40 41 42 43 44 45 46 47 48 49 50
000
ASUS43 KOAX 262010
RWRNE

WEATHER ROUNDUP FOR NEBRASKA
NATIONAL WEATHER SERVICE OMAHA NE
300 PM CDT MON SEP 26 2016

NOTES: SATELLITE DATA IS BEING USED TO AUGMENT CLOUD COVER ABOVE
       12000 FEET.
       "FAIR" INDICATES FEW OR NO CLOUDS BELOW 12,000 FEET WITH NO
       SIGNIFICANT WEATHER AND/OR OBSTRUCTIONS TO VISIBILITY.

  * THESE STATIONS DO NOT REPORT WEATHER SUCH AS RAIN...SNOW OR FOG.

NEZ001>004-019>022-054>056-262100-
NEBRASKA PANHANDLE

CITY           SKY/WX    TMP DP  RH WIND       PRES   REMARKS
SCOTTSBLUFF    SUNNY     74  39  28 NW10      30.28F
ALLIANCE       SUNNY     72  39  30 NW17G23   30.27F
CHADRON        SUNNY     73  40  30 NW21G30   30.25F
KIMBALL        SUNNY     71  40  32 NW7G17    30.34F
SIDNEY         LGT RAIN  74  38  27 NW15G22   30.32F
$$

NEZ057>060-069>072-079>082-262100-
SOUTHWEST NEBRASKA

CITY           SKY/WX    TMP DP  RH WIND       PRES   REMARKS
NORTH PLATTE   SUNNY     77  40  26 NW13G21   30.22F
IMPERIAL       SUNNY     76  34  21 NW15G21   30.25F
LEXINGTON      SUNNY     76  37  24 W15G22    30.20F
MCCOOK         SUNNY     77  38  24 NW7       30.22F
OGALLALA       SUNNY     77  37  22 NW14G20   30.25F
$$

NEZ005>010-023>029-035>040-094-262100-
NORTH CENTRAL NEBRASKA

CITY           SKY/WX    TMP DP  RH WIND       PRES   REMARKS
VALENTINE      SUNNY     74  35  24 N12G23    30.19F
AINSWORTH      SUNNY     72  39  30 NW9G23    30.19F
BROKEN BOW     SUNNY     78  38  23 NW20      30.18F
O`NEILL        SUNNY     74  33  22 NW18G24   30.17F
ORD            SUNNY     76  37  24 NW18G29   30.15F
THEDFORD       SUNNY     76  40  28 NW13G22   30.21F
$$

NEZ041-046>049-061>064-073>077-083>087-262100-
SOUTH CENTRAL NEBRASKA

CITY           SKY/WX    TMP DP  RH WIND       PRES   REMARKS
GRAND ISLAND   SUNNY     77  36  22 NW15G26   30.18F
AURORA         SUNNY     75  35  23 W14G20    30.18F
HASTINGS       SUNNY     75  35  23 W14G23    30.20F
HEBRON         SUNNY     74  36  24 W7G18     30.20F
HOLDREGE       SUNNY     75  33  21 W9G17     30.21F
KEARNEY *      SUNNY     75  32  20 W10       30.19F
YORK           SUNNY     75  37  25 NW14G23   30.17F
$$

NEZ011>018-030>034-042>045-262100-
NORTHEAST NEBRASKA

CITY           SKY/WX    TMP DP  RH WIND       PRES   REMARKS
NORFOLK        SUNNY     74  35  24 NW16G24   30.13F
ALBION         SUNNY     74  37  25 NW16      30.15F
BLAIR          MOSUNNY   74  41  29 NW16G24   30.13F
FREMONT        SUNNY     74  39  28 W14G22    30.14F
TEKAMAH        MOSUNNY   75  40  28 NW17G25   30.12F
WAYNE          SUNNY     73  43  33 W14G23    30.13F
$$

NEZ050>053-065>068-078-088>093-262100-
SOUTHEAST NEBRASKA

CITY           SKY/WX    TMP DP  RH WIND       PRES   REMARKS
LINCOLN        SUNNY     77  37  23 W12G22    30.17F
OMAHA EPPLEY   MOSUNNY   77  41  27 NW20      30.13F
BEATRICE       SUNNY     76  41  28 NW12      30.17F
FALLS CITY     SUNNY     74  44  34 W17G24    30.17F
NEBRASKA CITY  SUNNY     74  23  15 NW15      30.16F
PLATTSMOUTH    SUNNY     74  30  19 NW15G24   30.15F
$$

NEZ044-045-051>053-067-262100-
OMAHA AREA

CITY           SKY/WX    TMP DP  RH WIND       PRES   REMARKS
OMAHA EPPLEY   MOSUNNY   77  41  27 NW20      30.13F
BLAIR          MOSUNNY   74  41  29 NW16G24   30.13F
FREMONT        SUNNY     74  39  28 W14G22    30.14F
MILLARD        SUNNY     74  42  31 NW9G25    30.14F
OFFUTT AFB     SUNNY     75  41  29 NW20      30.13F
PLATTSMOUTH    SUNNY     74  30  19 NW15G24   30.15F
WAHOO          FAIR      76  37  24 W12G22    30.15F
$$



USA.gov is the U.S. government's official web portal to all federal, state and local government web resources and services.